Content
SEND FEEDBACK

Daily
Averages
Monthly
Summary
United States of America

SAN ANTONIO, TEXAS


Home > North America > United States > Texas
Elevation: 773 feet     Latitude: 29 32N     Longitude: 098 28W

WEATHER
 
SELECT A DAY
Number of Records: 200,154;   Date Range: 1/1/95 - 9/16/14
 
SHARE

PRINT THIS DATA

[ ← Previous Day ]
WEATHER ALMANAC - FEBRUARY 5, 2013
[ Next Day → ]
[ °C ]   °F
Weather ElementAverageHighLow
Temperature64.2 °F81 °F (2:51 pm)50 °F (4:07 am)
Dewpoint43.6 °F53.1 °F (11:51 pm)34 °F (2:51 pm)
Humidity56 %94 % (2:51 am)18 % (2:51 pm)
Barometer29.90 in29.98 in (10:51 am)29.84 in (4:51 pm)
Wind Speed4.2 mph9.2 mph (11:51 pm)
Weather ElementAverage
Visibility10 mi
Wind DirectionSSW (189.2 °)

Weather ElementTotal
Precipitation---
Cooling Degree Days0.5 (Base 65)
Growing Degree Days15.5 (Base 50)
Averaged from 26 records on February 5, 2013
WEATHER CONDITIONS BREAKOUT
WIND DIRECTION BREAKOUT
WEATHER BY HOUR - FEBRUARY 5, 2013
[ °C ]   °F
Local TimeTemperatureDewpointHumidityBarometerVisibilityWind DirectionWind SpeedGust SpeedPrecipitationEventsConditions
1:51 AM51.8 °F48.2 °F88 %29.89 in10.0 miNW (310°)4.6 mphPartly Cloudy
2:51 AM51.8 °F50.0 °F94 %29.89 in10.0 miWNW (300°)3.5 mphClear
3:44 AM51.8 °F48.2 °F88 %29.89 in10.0 miWNW (300°)4.6 mphPartly Cloudy
3:51 AM51.1 °F48.9 °F92 %29.85 in10.0 miNW (320°)4.6 mphPartly Cloudy
4:07 AM50.0 °F48.2 °F94 %29.89 in10.0 miNW (310°)5.8 mphMostly Cloudy
4:28 AM50.0 °F48.2 °F94 %29.89 in10.0 miWNW (290°)3.5 mphPartly Cloudy
4:51 AM51.1 °F48.9 °F92 %29.85 in10.0 miNW (310°)5.8 mphPartly Cloudy
5:51 AM51.8 °F48.2 °F88 %29.90 in10.0 miWNW (300°)5.8 mphPartly Cloudy
6:51 AM50.0 °F48.0 °F93 %29.89 in10.0 miNW (310°)5.8 mphPartly Cloudy
7:51 AM51.1 °F45.0 °F80 %29.91 in10.0 miWNW (300°)5.8 mphClear
8:51 AM59.0 °F45.0 °F60 %29.92 in10.0 miNW (310°)6.9 mphPartly Cloudy
9:51 AM68.0 °F44.1 °F42 %29.94 in10.0 miNW (320°)6.9 mphPartly Cloudy
10:51 AM75.2 °F39.2 °F27 %29.98 in10.0 miNNW (340°)4.6 mphScattered Clouds
11:51 AM77.0 °F42.1 °F29 %29.94 in10.0 miNE (50°)3.5 mphMostly Cloudy
12:51 PM78.1 °F37.0 °F23 %29.91 in10.0 miCalmMostly Cloudy
1:51 PM78.1 °F36.0 °F22 %29.89 in10.0 miWest (260°)3.5 mphMostly Cloudy
2:51 PM81.0 °F34.0 °F18 %29.86 in10.0 miVariable3.5 mphMostly Cloudy
3:51 PM79.0 °F34.0 °F20 %29.85 in10.0 miESE (120°)5.8 mphMostly Cloudy
4:51 PM81.0 °F35.1 °F19 %29.84 in10.0 miEast (100°)4.6 mphMostly Cloudy
5:51 PM73.9 °F37.0 °F26 %29.85 in10.0 miESE (110°)4.6 mphScattered Clouds
6:51 PM70.0 °F39.9 °F33 %29.87 in10.0 miCalmMostly Cloudy
7:51 PM70.0 °F41.0 °F35 %29.89 in10.0 miEast (80°)5.8 mphMostly Cloudy
8:51 PM69.8 °F42.8 °F38 %29.96 in10.0 miCalmOvercast
9:51 PM66.0 °F46.0 °F48 %29.92 in10.0 miCalm0.00 inRainLight Rain
10:51 PM66.9 °F46.0 °F47 %29.96 in10.0 miCalm0.00 inRainLight Rain
11:51 PM64.9 °F53.1 °F65 %29.95 in10.0 miSouth (180°)9.2 mph0.00 inRainLight Rain
Hourly data recorded from KSAT, located miles away from San Antonio, Texas







STORIES FROM OUR PARTNERS